Location: Barrio de Buenos Aires
(28.4500°N, 16.2667°W)
Time: 20:23:10
(UTC+00:00)

Atlas Centaur 2 - Pass Details

Date: 24 January 2020
Orbit: 459 x 1310 km, 30.4° (Epoch: 19 February)

Event Time Altitude Azimuth Distance (km) Brightness Sun altitude
Rises 18:55:07 0° 256° (WSW) 2,634 7.6 -4.4°
Reaches altitude 10° 18:57:09 10° 256° (WSW) 1,825 5.9 -4.8°
Maximum altitude 19:01:20 87° 167° (SSE) 640 1.7 -5.7°
Drops below altitude 10° 19:06:39 10° 79° (ENE) 2,296 3.8 -6.8°
Enters shadow 19:07:10 - 79° (ENE) 2,492 4.0 -6.9°
